,,Stat5,,Stat1,,Stat2,,Stat3,,Stat4,,Wind1,,Wind1,
time,status,PA1M_AVG,status,PR1M_SUM,status,RH1M_AVG,status,SR1M_AVG,status,TA1M_AVG,status,W1dAve1m,status,W1sAve1m,
2002-06-08, 00:00:00,VALID,917.58,VALID,0,VALID,97.733,VALID,0.0509425,VALID,20.6082,VALID,63,VALID,0.5,
2002-06-08, 00:01:00,VALID,917.58,VALID,0,VALID,97.7025,VALID,0.0509425,VALID,20.6149,VALID,63,VALID,0.507589,
2002-06-08, 00:02:00,VALID,917.573,VALID,0,VALID,97.7254,VALID,0,VALID,20.6114,VALID,63,VALID,0.299862,
2002-06-08, 00:03:00,VALID,917.564,VALID,0,VALID,97.7622,VALID,0,VALID,20.6273,VALID,63,VALID,0.0214844,
2002-06-08, 00:04:00,VALID,917.552,VALID,0,VALID,97.7749,VALID,0,VALID,20.6437,VALID,63,VALID,0.00094697,
2002-06-08, 00:05:00,VALID,917.549,VALID,0,VALID,97.7686,VALID,0.0169808,VALID,20.647,VALID,63,VALID,0.00223214,
2002-06-08, 00:06:00,VALID,917.549,VALID,0,VALID,97.747,VALID,0.0169808,VALID,20.6693,VALID,63,VALID,0.0015625,
2002-06-08, 00:07:00,VALID,917.54,VALID,0,VALID,97.6732,VALID,0,VALID,20.6825,VALID,63,VALID,0,
2002-06-08, 00:08:00,VALID,917.529,VALID,0,VALID,97.5651,VALID,0.0679233,VALID,20.6857,VALID,63,VALID,0,
2002-06-08, 00:09:00,VALID,917.501,VALID,0,VALID,97.4927,VALID,0,VALID,20.696,VALID,63,VALID,0.0273438,
2002-06-08, 00:10:00,VALID,917.464,VALID,0,VALID,97.424,VALID,-0.0509425,VALID,20.69,VALID,62,VALID,0.0814394,
2002-06-08, 00:11:00,VALID,917.43,VALID,0,VALID,97.3808,VALID,-0.0339617,VALID,20.6905,VALID,51,VALID,0.265625,
2002-06-08, 00:12:00,VALID,917.387,VALID,0,VALID,97.3197,VALID,-0.0339617,VALID,20.6997,VALID,48,VALID,0.365234,
2002-06-08, 00:13:00,VALID,917.351,VALID,0,VALID,97.2371,VALID,-0.101885,VALID,20.7005,VALID,47,VALID,0.409375,
2002-06-08, 00:14:00,VALID,917.331,VALID,0,VALID,97.1798,VALID,-0.0679233,VALID,20.6841,VALID,47,VALID,0.414292,
2002-06-08, 00:15:00,VALID,917.308,VALID,0,VALID,97.2345,VALID,-0.0339617,VALID,20.6905,VALID,47,VALID,0.382227,
2002-06-08, 00:16:00,VALID,917.295,VALID,0,VALID,97.3439,VALID,-0.0849042,VALID,20.7161,VALID,47,VALID,0.291903,
2002-06-08, 00:17:00,VALID,917.304,VALID,0,VALID,97.3019,VALID,-0.0679233,VALID,20.7191,VALID,47,VALID,0.192857,
2002-06-08, 00:18:00,VALID,917.297,VALID,0,VALID,97.3172,VALID,-0.0679233,VALID,20.7428,VALID,47,VALID,0.136328,
2002-06-08, 00:19:00,VALID,917.281,VALID,0,VALID,97.3362,VALID,-0.0679233,VALID,20.7455,VALID,47,VALID,0.151562,
2002-06-08, 00:20:00,VALID,917.276,VALID,0,VALID,97.368,VALID,-0.0509425,VALID,20.7323,VALID,47,VALID,0.211167,
2002-06-08, 00:21:00,VALID,917.27,VALID,0,VALID,97.4253,VALID,-0.101885,VALID,20.7654,VALID,47,VALID,0.0330078,
2002-06-08, 00:22:00,VALID,917.252,VALID,0,VALID,97.4825,VALID,-0.0509425,VALID,20.7711,VALID,47,VALID,0.00189394,
2002-06-08, 00:23:00,VALID,917.215,VALID,0,VALID,97.4939,VALID,-0.0509425,VALID,20.7807,VALID,47,VALID,0,
2002-06-08, 00:24:00,VALID,917.173,VALID,0,VALID,97.4965,VALID,-0.0849042,VALID,20.7912,VALID,47,VALID,0,
2002-06-08, 00:25:00,VALID,917.132,VALID,0,VALID,97.4787,VALID,-0.0169808,VALID,20.8039,VALID,47,VALID,0.159152,
2002-06-08, 00:26:00,VALID,917.103,VALID,0,VALID,97.4253,VALID,-0.0339617,VALID,20.7972,VALID,47,VALID,0.321002,
2002-06-08, 00:27:00,VALID,917.077,VALID,0,VALID,97.4075,VALID,-0.0509425,VALID,20.8007,VALID,50,VALID,0.398828,
2002-06-08, 00:28:00,VALID,917.043,VALID,0,VALID,97.4405,VALID,-0.0169808,VALID,20.7939,VALID,89,VALID,0.454309,
2002-06-08, 00:29:00,VALID,917.009,VALID,0,VALID,97.4278,VALID,-0.0679233,VALID,20.7872,VALID,92,VALID,0.580134,
2002-06-08, 00:30:00,VALID,916.983,VALID,0,VALID,97.4583,VALID,-0.0169808,VALID,20.7775,VALID,94,VALID,0.584766,
2002-06-08, 00:31:00,VALID,916.96,VALID,0,VALID,97.4939,VALID,-0.0339617,VALID,20.7907,VALID,94,VALID,0.590179,
2002-06-08, 00:32:00,VALID,916.932,VALID,0,VALID,97.499,VALID,-0.0169808,VALID,20.7773,VALID,94,VALID,0.476563,
2002-06-08, 00:33:00,VALID,916.918,VALID,0,VALID,97.5448,VALID,-0.0509425,VALID,20.7676,VALID,94,VALID,0.478125,
2002-06-08, 00:34:00,VALID,916.891,VALID,0,VALID,97.6007,VALID,-0.0339617,VALID,20.7775,VALID,92,VALID,0.354403,
2002-06-08, 00:35:00,VALID,916.855,VALID,0,VALID,97.63,VALID,-0.0509425,VALID,20.7969,VALID,92,VALID,0.246205,
2002-06-08, 00:36:00,VALID,916.828,VALID,0,VALID,97.602,VALID,-0.0509425,VALID,20.7934,VALID,92,VALID,0.387695,
2002-06-08, 00:37:00,VALID,916.796,VALID,0,VALID,97.5969,VALID,-0.0509425,VALID,20.7966,VALID,92,VALID,0.434598,
2002-06-08, 00:38:00,VALID,916.775,VALID,0,VALID,97.6287,VALID,-0.0679233,VALID,20.8001,VALID,90,VALID,0.40602,
2002-06-08, 00:39:00,VALID,916.744,VALID,0,VALID,97.6898,VALID,-0.0169808,VALID,20.823,VALID,70,VALID,0.34707,
2002-06-08, 00:40:00,VALID,916.713,VALID,0,VALID,97.5944,VALID,0.0339617,VALID,20.8182,VALID,71,VALID,0.474669,
2002-06-08, 00:41:00,VALID,916.679,VALID,0,VALID,97.4876,VALID,0.0509425,VALID,20.8013,VALID,86,VALID,0.522098,
2002-06-08, 00:42:00,VALID,916.645,VALID,0,VALID,97.3579,VALID,0.101885,VALID,20.7819,VALID,94,VALID,0.71543,
2002-06-08, 00:43:00,VALID,916.615,VALID,0,VALID,97.4113,VALID,0.0849042,VALID,20.763,VALID,97,VALID,0.591741,
2002-06-08, 00:44:00,VALID,916.602,VALID,0,VALID,97.471,VALID,0.101885,VALID,20.7531,VALID,77,VALID,0.537914,
2002-06-08, 00:45:00,VALID,916.586,VALID,0,VALID,97.6033,VALID,0.0679233,VALID,20.7633,VALID,65,VALID,0.450781,
2002-06-08, 00:46:00,VALID,916.582,VALID,0,VALID,97.6452,VALID,0.0339617,VALID,20.769,VALID,63,VALID,0.348011,
2002-06-08, 00:47:00,VALID,916.586,VALID,0,VALID,97.6274,VALID,0.0509425,VALID,20.7924,VALID,63,VALID,0.333705,
2002-06-08, 00:48:00,VALID,916.595,VALID,0,VALID,97.5956,VALID,0.0169808,VALID,20.7757,VALID,63,VALID,0.408984,
2002-06-08, 00:49:00,VALID,916.611,VALID,0,VALID,97.6287,VALID,0.0849042,VALID,20.7889,VALID,63,VALID,0.329241,
2002-06-08, 00:50:00,VALID,916.614,VALID,0,VALID,97.5867,VALID,0.0679233,VALID,20.8083,VALID,63,VALID,0.276425,
2002-06-08, 00:51:00,VALID,916.621,VALID,0,VALID,97.527,VALID,0.101885,VALID,20.8115,VALID,63,VALID,0.183008,
2002-06-08, 00:52:00,VALID,916.619,VALID,0,VALID,97.499,VALID,0.0849042,VALID,20.8018,VALID,63,VALID,0.253078,
2002-06-08, 00:53:00,VALID,916.629,VALID,0,VALID,97.4837,VALID,0.101885,VALID,20.808,VALID,63,VALID,0.258705,
2002-06-08, 00:54:00,VALID,916.63,VALID,0,VALID,97.4901,VALID,0.0849042,VALID,20.815,VALID,63,VALID,0.305664,
2002-06-08, 00:55:00,VALID,916.643,VALID,0,VALID,97.5842,VALID,0,VALID,20.8125,VALID,114,VALID,0.407143,
2002-06-08, 00:56:00,VALID,916.642,VALID,0,VALID,97.6758,VALID,-0.0339617,VALID,20.8359,VALID,142,VALID,0.321232,
2002-06-08, 00:57:00,VALID,916.646,VALID,0,VALID,97.6808,VALID,-0.0509425,VALID,20.8524,VALID,156,VALID,0.571094,
2002-06-08, 00:58:00,VALID,916.643,VALID,0,VALID,97.6707,VALID,0,VALID,20.8516,VALID,163,VALID,0.793087,
2002-06-08, 00:59:00,VALID,916.641,VALID,0,VALID,97.6109,VALID,0,VALID,20.8545,VALID,169,VALID,0.912946,
2002-06-08, 01:00:00,VALID,916.629,VALID,0,VALID,97.5931,VALID,-0.0169808,VALID,20.8448,VALID,171,VALID,0.837695,
2002-06-08, 01:01:00,VALID,916.628,VALID,0,VALID,97.63,VALID,-0.0169808,VALID,20.8354,VALID,180,VALID,0.353795,
2002-06-08, 01:02:00,VALID,916.611,VALID,0,VALID,97.6516,VALID,0,VALID,20.829,VALID,217,VALID,0.670726,
2002-06-08, 01:03:00,VALID,916.603,VALID,0,VALID,97.6872,VALID,-0.0509425,VALID,20.7999,VALID,239,VALID,0.669336,
2002-06-08, 01:04:00,VALID,916.598,VALID,0,VALID,97.7419,VALID,-0.0169808,VALID,20.7773,VALID,255,VALID,0.435606,
2002-06-08, 01:05:00,VALID,916.563,VALID,0,VALID,97.822,VALID,-0.0339617,VALID,20.7805,VALID,240,VALID,0.507143,
2002-06-08, 01:06:00,VALID,916.549,VALID,0,VALID,97.8411,VALID,-0.0509425,VALID,20.7616,VALID,191,VALID,0.527539,
2002-06-08, 01:07:00,VALID,916.531,VALID,0,VALID,97.883,VALID,-0.0339617,VALID,20.7447,VALID,186,VALID,0.127232,
2002-06-08, 01:08:00,VALID,916.521,VALID,0,VALID,97.9288,VALID,-0.0509425,VALID,20.7484,VALID,186,VALID,0.0209099,
2002-06-08, 01:09:00,VALID,916.517,VALID,0,VALID,97.9593,VALID,-0.0169808,VALID,20.7611,VALID,186,VALID,0.195117,
2002-06-08, 01:10:00,VALID,916.505,VALID,0,VALID,98.0013,VALID,0,VALID,20.77,VALID,180,VALID,0.202415,
2002-06-08, 01:11:00,VALID,916.49,VALID,0,VALID,98.0038,VALID,0.0509425,VALID,20.7854,VALID,157,VALID,0.277902,
2002-06-08, 01:12:00,VALID,916.477,VALID,0,VALID,97.9631,VALID,0.0339617,VALID,20.7856,VALID,157,VALID,0.419727,
2002-06-08, 01:13:00,VALID,916.476,VALID,0,VALID,97.9746,VALID,0.0509425,VALID,20.7856,VALID,156,VALID,0.489955,
2002-06-08, 01:14:00,VALID,916.463,VALID,0,VALID,97.9517,VALID,0.0169808,VALID,20.7921,VALID,153,VALID,0.707721,
2002-06-08, 01:15:00,VALID,916.449,VALID,0,VALID,97.9263,VALID,0,VALID,20.7926,VALID,140,VALID,0.582812,
2002-06-08, 01:16:00,VALID,916.441,VALID,0,VALID,97.9072,VALID,0.0169808,VALID,20.7794,VALID,144,VALID,0.650805,
2002-06-08, 01:17:00,VALID,916.434,VALID,0,VALID,97.9352,VALID,0.0169808,VALID,20.7792,VALID,127,VALID,0.46317,
2002-06-08, 01:18:00,VALID,916.434,VALID,0,VALID,97.9466,VALID,0.0339617,VALID,20.7859,VALID,98,VALID,0.449805,
2002-06-08, 01:19:00,VALID,916.43,VALID,0,VALID,97.967,VALID,0.0169808,VALID,20.7821,VALID,76,VALID,0.521652,
2002-06-08, 01:20:00,VALID,916.428,VALID,0,VALID,97.9199,VALID,0.0509425,VALID,20.7692,VALID,101,VALID,0.529871,
2002-06-08, 01:21:00,VALID,916.426,VALID,0,VALID,97.9631,VALID,0,VALID,20.7697,VALID,108,VALID,0.467969,
2002-06-08, 01:22:00,VALID,916.402,VALID,0,VALID,98.0293,VALID,0.0169808,VALID,20.756,VALID,122,VALID,0.486742,
2002-06-08, 01:23:00,VALID,916.38,VALID,0,VALID,98.0687,VALID,0.0169808,VALID,20.7663,VALID,117,VALID,0.652902,
2002-06-08, 01:24:00,VALID,916.341,VALID,0,VALID,98.1081,VALID,0.0339617,VALID,20.766,VALID,118,VALID,0.740234,
2002-06-08, 01:25:00,VALID,916.309,VALID,0,VALID,98.1234,VALID,-0.0339617,VALID,20.7676,VALID,115,VALID,0.76875,
2002-06-08, 01:26:00,VALID,916.282,VALID,0,VALID,98.1628,VALID,-0.101885,VALID,20.7581,VALID,118,VALID,0.846278,
2002-06-08, 01:27:00,VALID,916.268,VALID,0,VALID,98.1679,VALID,-0.0509425,VALID,20.742,VALID,113,VALID,1.06582,
2002-06-08, 01:28:00,VALID,916.242,VALID,0,VALID,98.2086,VALID,-0.0679233,VALID,20.7358,VALID,108,VALID,0.734138,
2002-06-08, 01:29:00,VALID,916.236,VALID,0,VALID,98.2404,VALID,-0.0849042,VALID,20.7266,VALID,103,VALID,0.816295,
2002-06-08, 01:30:00,VALID,916.226,VALID,0,VALID,98.295,VALID,-0.0509425,VALID,20.6967,VALID,105,VALID,0.908594,
2002-06-08, 01:31:00,VALID,916.24,VALID,0,VALID,98.3434,VALID,-0.0339617,VALID,20.6967,VALID,101,VALID,0.904241,
2002-06-08, 01:32:00,VALID,916.258,VALID,0,VALID,98.3802,VALID,-0.101885,VALID,20.6841,VALID,103,VALID,0.816866,
2002-06-08, 01:33:00,VALID,916.277,VALID,0,VALID,98.4044,VALID,-0.0679233,VALID,20.6639,VALID,107,VALID,0.783008,
2002-06-08, 01:34:00,VALID,916.282,VALID,0,VALID,98.4235,VALID,-0.0679233,VALID,20.6744,VALID,105,VALID,0.720881,
2002-06-08, 01:35:00,VALID,916.283,VALID,0,VALID,98.4476,VALID,-0.0679233,VALID,20.6741,VALID,105,VALID,0.721652,
2002-06-08, 01:36:00,VALID,916.31,VALID,0,VALID,98.4756,VALID,-0.0509425,VALID,20.6644,VALID,113,VALID,0.909766,
2002-06-08, 01:37:00,VALID,916.294,VALID,0,VALID,98.5137,VALID,-0.0169808,VALID,20.6542,VALID,97,VALID,0.66942,
2002-06-08, 01:38:00,VALID,916.28,VALID,0,VALID,98.5354,VALID,-0.0679233,VALID,20.6746,VALID,140,VALID,0.560202,
2002-06-08, 01:39:00,VALID,916.272,VALID,0,VALID,98.5621,VALID,-0.0849042,VALID,20.6642,VALID,149,VALID,0.165625,
2002-06-08, 01:40:00,VALID,916.239,VALID,0,VALID,98.5824,VALID,-0.0339617,VALID,20.6731,VALID,148,VALID,0.460701,
2002-06-08, 01:41:00,VALID,916.2,VALID,0,VALID,98.5824,VALID,0.0169808,VALID,20.6793,VALID,161,VALID,0.506027,
2002-06-08, 01:42:00,VALID,916.202,VALID,0,VALID,98.6104,VALID,0.0509425,VALID,20.686,VALID,172,VALID,0.326367,
2002-06-08, 01:43:00,VALID,916.201,VALID,0,VALID,98.6244,VALID,0.0339617,VALID,20.689,VALID,165,VALID,0.45692,
2002-06-08, 01:44:00,VALID,916.207,VALID,0,VALID,98.6384,VALID,0.0169808,VALID,20.6887,VALID,165,VALID,0.534467,
2002-06-08, 01:45:00,VALID,916.216,VALID,0,VALID,98.6104,VALID,0.0339617,VALID,20.689,VALID,151,VALID,1.0252,
2002-06-08, 01:46:00,VALID,916.235,VALID,0,VALID,98.5837,VALID,0.0509425,VALID,20.6664,VALID,152,VALID,1.13187,
2002-06-08, 01:47:00,VALID,916.238,VALID,0,VALID,98.6002,VALID,0.0509425,VALID,20.6567,VALID,140,VALID,0.863616,
2002-06-08, 01:48:00,VALID,916.228,VALID,0,VALID,98.5913,VALID,0.0509425,VALID,20.6537,VALID,141,VALID,0.772461,
2002-06-08, 01:49:00,VALID,916.227,VALID,0,VALID,98.6231,VALID,0.0169808,VALID,20.6437,VALID,129,VALID,0.415179,
2002-06-08, 01:50:00,VALID,916.22,VALID,0,VALID,98.6269,VALID,0.0169808,VALID,20.6631,VALID,121,VALID,0.649816,
2002-06-08, 01:51:00,VALID,916.203,VALID,0,VALID,98.5697,VALID,0.0169808,VALID,20.6502,VALID,115,VALID,0.845312,
2002-06-08, 01:52:00,VALID,916.192,VALID,0,VALID,98.5748,VALID,0.0339617,VALID,20.6338,VALID,108,VALID,0.697206,
2002-06-08, 01:53:00,VALID,916.187,VALID,0,VALID,98.5659,VALID,0.0509425,VALID,20.6338,VALID,102,VALID,0.847768,
2002-06-08, 01:54:00,VALID,916.181,VALID,0,VALID,98.5506,VALID,0.0169808,VALID,20.6472,VALID,105,VALID,0.692773,
2002-06-08, 01:55:00,VALID,916.2,VALID,0,VALID,98.5468,VALID,-0.0509425,VALID,20.6453,VALID,119,VALID,0.547545,
2002-06-08, 01:56:00,VALID,916.208,VALID,0,VALID,98.5735,VALID,-0.0339617,VALID,20.6453,VALID,105,VALID,0.306985,
2002-06-08, 01:57:00,VALID,916.219,VALID,0,VALID,98.5824,VALID,-0.0849042,VALID,20.655,VALID,94,VALID,0.307617,
2002-06-08, 01:58:00,VALID,916.23,VALID,0,VALID,98.5672,VALID,-0.101885,VALID,20.6649,VALID,119,VALID,0.557528,
2002-06-08, 01:59:00,VALID,916.23,VALID,0,VALID,98.5328,VALID,-0.0679233,VALID,20.6609,VALID,117,VALID,0.364732,
2002-06-08, 02:00:00,VALID,916.215,VALID,0,VALID,98.5494,VALID,-0.0849042,VALID,20.6712,VALID,118,VALID,0.137305,
2002-06-08, 02:01:00,VALID,916.189,VALID,0,VALID,98.5544,VALID,-0.0679233,VALID,20.6943,VALID,113,VALID,0.186384,
2002-06-08, 02:02:00,VALID,916.187,VALID,0,VALID,98.4909,VALID,-0.0509425,VALID,20.6938,VALID,120,VALID,0.396599,
2002-06-08, 02:03:00,VALID,916.176,VALID,0,VALID,98.3866,VALID,-0.101885,VALID,20.6841,VALID,110,VALID,0.658203,
2002-06-08, 02:04:00,VALID,916.157,VALID,0,VALID,98.3535,VALID,-0.0679233,VALID,20.6905,VALID,93,VALID,0.380208,
2002-06-08, 02:05:00,VALID,916.167,VALID,0,VALID,98.3039,VALID,-0.101885,VALID,20.6841,VALID,105,VALID,0.289286,
2002-06-08, 02:06:00,VALID,916.165,VALID,0,VALID,98.295,VALID,-0.0849042,VALID,20.6876,VALID,106,VALID,0.0324219,
2002-06-08, 02:07:00,VALID,916.17,VALID,0,VALID,98.2353,VALID,-0.0849042,VALID,20.6873,VALID,123,VALID,0.234598,
2002-06-08, 02:08:00,VALID,916.174,VALID,0,VALID,98.2073,VALID,-0.101885,VALID,20.7037,VALID,134,VALID,0.00275735,
2002-06-08, 02:09:00,VALID,916.185,VALID,0,VALID,98.1933,VALID,-0.0679233,VALID,20.7196,VALID,134,VALID,0,
2002-06-08, 02:10:00,VALID,916.184,VALID,0,VALID,98.1323,VALID,-0.0509425,VALID,20.7285,VALID,134,VALID,0,
2002-06-08, 02:11:00,VALID,916.197,VALID,0,VALID,98.0293,VALID,-0.0849042,VALID,20.729,VALID,134,VALID,0,
2002-06-08, 02:12:00,VALID,916.194,VALID,0,VALID,97.9123,VALID,-0.0849042,VALID,20.7223,VALID,134,VALID,0,
2002-06-08, 02:13:00,VALID,916.198,VALID,0,VALID,97.8322,VALID,-0.0849042,VALID,20.7358,VALID,134,VALID,0,
2002-06-08, 02:14:00,VALID,916.194,VALID,0,VALID,97.7915,VALID,-0.0339617,VALID,20.7455,VALID,134,VALID,0,
2002-06-08, 02:15:00,VALID,916.186,VALID,0,VALID,97.7292,VALID,-0.0169808,VALID,20.7611,VALID,134,VALID,0,
2002-06-08, 02:16:00,VALID,916.179,VALID,0,VALID,97.6541,VALID,-0.0169808,VALID,20.7676,VALID,134,VALID,0.00757576,
2002-06-08, 02:17:00,VALID,916.163,VALID,0,VALID,97.6211,VALID,-0.0849042,VALID,20.7902,VALID,134,VALID,0.204241,
2002-06-08, 02:18:00,VALID,916.157,VALID,0,VALID,97.6236,VALID,-0.0339617,VALID,20.7929,VALID,134,VALID,0.0304688,
2002-06-08, 02:19:00,VALID,916.127,VALID,0,VALID,97.6529,VALID,-0.0509425,VALID,20.8028,VALID,134,VALID,0.0267857,
2002-06-08, 02:20:00,VALID,916.12,VALID,0,VALID,97.6605,VALID,-0.0339617,VALID,20.8228,VALID,134,VALID,0,
2002-06-08, 02:21:00,VALID,916.111,VALID,0,VALID,97.6478,VALID,0,VALID,20.8093,VALID,134,VALID,0,
2002-06-08, 02:22:00,VALID,916.098,VALID,0,VALID,97.6427,VALID,-0.0169808,VALID,20.7864,VALID,134,VALID,0,
2002-06-08, 02:23:00,VALID,916.089,VALID,0,VALID,97.6783,VALID,-0.0169808,VALID,20.7829,VALID,134,VALID,0,
2002-06-08, 02:24:00,VALID,916.077,VALID,0,VALID,97.6618,VALID,-0.0679233,VALID,20.7802,VALID,134,VALID,0,
2002-06-08, 02:25:00,VALID,916.062,VALID,0,VALID,97.644,VALID,0.0169808,VALID,20.7794,VALID,134,VALID,0,
2002-06-08, 02:26:00,VALID,916.047,VALID,0,VALID,97.6681,VALID,0.0509425,VALID,20.7827,VALID,134,VALID,0.0011489,
2002-06-08, 02:27:00,VALID,916.047,VALID,0,VALID,97.6898,VALID,0.0339617,VALID,20.7754,VALID,134,VALID,0.0957031,
2002-06-08, 02:28:00,VALID,916.031,VALID,0,VALID,97.6834,VALID,0.0679233,VALID,20.7787,VALID,137,VALID,0.161932,
2002-06-08, 02:29:00,VALID,916.021,VALID,0,VALID,97.574,VALID,0.0339617,VALID,20.7628,VALID,149,VALID,0.383259,
2002-06-08, 02:30:00,VALID,916.011,VALID,0,VALID,97.4316,VALID,0.0339617,VALID,20.7272,VALID,155,VALID,0.37168,
2002-06-08, 02:31:00,VALID,916.004,VALID,0,VALID,97.3858,VALID,0.0679233,VALID,20.7009,VALID,158,VALID,0.210938,
2002-06-08, 02:32:00,VALID,915.994,VALID,0,VALID,97.3922,VALID,0.0509425,VALID,20.6785,VALID,184,VALID,0.275506,
2002-06-08, 02:33:00,VALID,915.981,VALID,0,VALID,97.3808,VALID,0.0509425,VALID,20.6693,VALID,199,VALID,0.14082,
2002-06-08, 02:34:00,VALID,915.978,VALID,0,VALID,97.4049,VALID,0.0679233,VALID,20.6534,VALID,200,VALID,0.128078,
2002-06-08, 02:35:00,VALID,915.952,VALID,0,VALID,97.4278,VALID,0.0679233,VALID,20.6335,VALID,201,VALID,0.144196,
2002-06-08, 02:36:00,VALID,915.946,VALID,0,VALID,97.5105,VALID,0.101885,VALID,20.6432,VALID,211,VALID,0.148828,
2002-06-08, 02:37:00,VALID,915.929,VALID,0,VALID,97.5677,VALID,0.0849042,VALID,20.6499,VALID,211,VALID,0.00267857,
2002-06-08, 02:38:00,VALID,915.914,VALID,0,VALID,97.5982,VALID,0.0849042,VALID,20.6403,VALID,211,VALID,0.0287224,
2002-06-08, 02:39:00,VALID,915.886,VALID,0,VALID,97.6046,VALID,0.0679233,VALID,20.6238,VALID,211,VALID,0.102344,
2002-06-08, 02:40:00,VALID,915.889,VALID,0,VALID,97.6427,VALID,-0.0169808,VALID,20.6154,VALID,211,VALID,0.00355114,
2002-06-08, 02:41:00,VALID,915.872,VALID,0,VALID,97.6808,VALID,-0.0679233,VALID,20.6192,VALID,211,VALID,0.00669643,
2002-06-08, 02:42:00,VALID,915.856,VALID,0,VALID,97.7304,VALID,-0.0509425,VALID,20.616,VALID,211,VALID,0,
2002-06-08, 02:43:00,VALID,915.841,VALID,0,VALID,97.7622,VALID,-0.0509425,VALID,20.6259,VALID,211,VALID,0,
2002-06-08, 02:44:00,VALID,915.825,VALID,0,VALID,97.7864,VALID,-0.0339617,VALID,20.6222,VALID,211,VALID,0,
2002-06-08, 02:45:00,VALID,915.806,VALID,0,VALID,97.8029,VALID,-0.0849042,VALID,20.6189,VALID,211,VALID,0,
2002-06-08, 02:46:00,VALID,915.813,VALID,0,VALID,97.822,VALID,-0.0679233,VALID,20.6289,VALID,211,VALID,0,
2002-06-08, 02:47:00,VALID,915.798,VALID,0,VALID,97.9021,VALID,-0.0679233,VALID,20.6254,VALID,211,VALID,0.0622768,
2002-06-08, 02:48:00,VALID,915.787,VALID,0,VALID,97.9199,VALID,-0.0509425,VALID,20.616,VALID,211,VALID,0.0640625,
2002-06-08, 02:49:00,VALID,915.779,VALID,0,VALID,97.8436,VALID,-0.0339617,VALID,20.6157,VALID,210,VALID,0.256696,
2002-06-08, 02:50:00,VALID,915.763,VALID,0,VALID,97.8576,VALID,-0.0679233,VALID,20.6036,VALID,158,VALID,0.262638,
2002-06-08, 02:51:00,VALID,915.751,VALID,0,VALID,97.911,VALID,-0.0509425,VALID,20.5734,VALID,151,VALID,0.303711,
2002-06-08, 02:52:00,VALID,915.747,VALID,0,VALID,97.9619,VALID,-0.0679233,VALID,20.5608,VALID,150,VALID,0.108428,
2002-06-08, 02:53:00,VALID,915.727,VALID,0,VALID,97.9987,VALID,-0.0509425,VALID,20.5605,VALID,148,VALID,0.0125,
2002-06-08, 02:54:00,VALID,915.734,VALID,0,VALID,98.0471,VALID,-0.0679233,VALID,20.5513,VALID,148,VALID,0,
2002-06-08, 02:55:00,VALID,915.73,VALID,0,VALID,98.0636,VALID,0,VALID,20.5535,VALID,148,VALID,0,
2002-06-08, 02:56:00,VALID,915.717,VALID,0,VALID,98.1221,VALID,0.0509425,VALID,20.5568,VALID,148,VALID,0,
2002-06-08, 02:57:00,VALID,915.716,VALID,0,VALID,98.1666,VALID,0.0339617,VALID,20.5369,VALID,149,VALID,0.10625,
2002-06-08, 02:58:00,VALID,915.711,VALID,0,VALID,98.178,VALID,0.0679233,VALID,20.5471,VALID,181,VALID,0.309186,
2002-06-08, 02:59:00,VALID,915.709,VALID,0,VALID,98.2098,VALID,0.0169808,VALID,20.5498,VALID,273,VALID,0.401116,
2002-06-08, 03:00:00,VALID,915.724,VALID,0,VALID,98.2213,VALID,0.0169808,VALID,20.5498,VALID,277,VALID,0.380078,
2002-06-08, 03:01:00,VALID,915.729,VALID,0,VALID,98.2429,VALID,0.0509425,VALID,20.5369,VALID,277,VALID,0.18058,
2002-06-08, 03:02:00,VALID,915.74,VALID,0,VALID,98.2798,VALID,0.0849042,VALID,20.5269,VALID,277,VALID,0.0868566,
2002-06-08, 03:03:00,VALID,915.755,VALID,0,VALID,98.3243,VALID,0.0849042,VALID,20.5369,VALID,277,VALID,0,
2002-06-08, 03:04:00,VALID,915.763,VALID,0,VALID,98.3815,VALID,0.0679233,VALID,20.5366,VALID,277,VALID,0,
2002-06-08, 03:05:00,VALID,915.781,VALID,0,VALID,98.4057,VALID,0.101885,VALID,20.5426,VALID,277,VALID,0,
2002-06-08, 03:06:00,VALID,915.771,VALID,0,VALID,98.426,VALID,0.0339617,VALID,20.5563,VALID,277,VALID,0,
2002-06-08, 03:07:00,VALID,915.766,VALID,0,VALID,98.4375,VALID,0.0509425,VALID,20.5563,VALID,277,VALID,0,
2002-06-08, 03:08:00,VALID,915.753,VALID,0,VALID,98.4387,VALID,0.0339617,VALID,20.5563,VALID,277,VALID,0,
2002-06-08, 03:09:00,VALID,915.734,VALID,0,VALID,98.4553,VALID,0.0509425,VALID,20.556,VALID,277,VALID,0,
2002-06-08, 03:10:00,VALID,915.725,VALID,0,VALID,98.4705,VALID,0.0509425,VALID,20.5662,VALID,277,VALID,0,
2002-06-08, 03:11:00,VALID,915.706,VALID,0,VALID,98.4756,VALID,0.0509425,VALID,20.5759,VALID,277,VALID,0,
2002-06-08, 03:12:00,VALID,915.696,VALID,0,VALID,98.4947,VALID,0.0849042,VALID,20.5921,VALID,277,VALID,0,
2002-06-08, 03:13:00,VALID,915.691,VALID,0,VALID,98.5137,VALID,0.0679233,VALID,20.6047,VALID,277,VALID,0.0375,
2002-06-08, 03:14:00,VALID,915.675,VALID,0,VALID,98.4832,VALID,0.0679233,VALID,20.6147,VALID,277,VALID,0.153263,
2002-06-08, 03:15:00,VALID,915.66,VALID,0,VALID,98.4438,VALID,0,VALID,20.6082,VALID,277,VALID,0.207031,
2002-06-08, 03:16:00,VALID,915.651,VALID,0,VALID,98.4133,VALID,0.0339617,VALID,20.5983,VALID,277,VALID,0.174242,
2002-06-08, 03:17:00,VALID,915.635,VALID,0,VALID,98.4044,VALID,0.0169808,VALID,20.5886,VALID,277,VALID,0.169196,
2002-06-08, 03:18:00,VALID,915.634,VALID,0,VALID,98.4196,VALID,0.0169808,VALID,20.5958,VALID,277,VALID,0.218555,
2002-06-08, 03:19:00,VALID,915.615,VALID,0,VALID,98.3879,VALID,0.0509425,VALID,20.5985,VALID,282,VALID,0.293304,
2002-06-08, 03:20:00,VALID,915.603,VALID,0,VALID,98.4222,VALID,0.0169808,VALID,20.605,VALID,26,VALID,0.341912,
2002-06-08, 03:21:00,VALID,915.572,VALID,0,VALID,98.44,VALID,0,VALID,20.6278,VALID,26,VALID,0.199219,
2002-06-08, 03:22:00,VALID,915.553,VALID,0,VALID,98.3929,VALID,0.0509425,VALID,20.6276,VALID,26,VALID,0.253551,
2002-06-08, 03:23:00,VALID,915.518,VALID,0,VALID,98.3484,VALID,0.0169808,VALID,20.6244,VALID,26,VALID,0.251786,
2002-06-08, 03:24:00,VALID,915.482,VALID,0,VALID,98.3383,VALID,0.0339617,VALID,20.6308,VALID,26,VALID,0.237305,
2002-06-08, 03:25:00,VALID,915.465,VALID,0,VALID,98.3039,VALID,-0.0339617,VALID,20.6381,VALID,26,VALID,0.226339,
2002-06-08, 03:26:00,VALID,915.437,VALID,0,VALID,98.3395,VALID,-0.0509425,VALID,20.6518,VALID,26,VALID,0.309513,
2002-06-08, 03:27:00,VALID,915.422,VALID,0,VALID,98.2887,VALID,-0.0509425,VALID,20.6709,VALID,39,VALID,0.429102,
2002-06-08, 03:28:00,VALID,915.409,VALID,0,VALID,98.2416,VALID,-0.0169808,VALID,20.6712,VALID,48,VALID,0.410748,
2002-06-08, 03:29:00,VALID,915.404,VALID,0,VALID,98.1526,VALID,-0.0509425,VALID,20.6709,VALID,50,VALID,0.43192,
2002-06-08, 03:30:00,VALID,915.388,VALID,0,VALID,98.0077,VALID,-0.0509425,VALID,20.6615,VALID,70,VALID,0.525,
2002-06-08, 03:31:00,VALID,915.386,VALID,0,VALID,97.9517,VALID,-0.0509425,VALID,20.6289,VALID,80,VALID,0.498214,